Date String (YYYY-MM-DD hh:mm:ss) UTC,Instrument flags,Ambient pressure (hPa),Sample flow (lpm),Bypass flow (lpm),Sample temperature (°C),Ambient temperature (°C),ASC tube jacket temperature (°C),LED temperature (°C),Box temperature (°C),Sample RH (%),Span deviation,Mass concentration (μg/m³),Mass concentration (μg/m³),Mass concentration (μg/m³)
DateTimeUTC,F1_M11,P_M11,Q1_M11,Q2_M11,T1_M11,T2_M11,T3_M11,T4_M11,T5_M11,U1_M11,ZSPAN_M11,X0_M11,X2_M11,X1_M11
2023-01-26 21:00:00,,0823.0,4.99,0.00,23.6,22.3,00.0,32.3,25.4,07.0,0000.0,0003.13,0001.03,0000.74
2023-01-26 21:01:00,,0822.9,5.00,0.00,23.5,22.2,00.0,32.3,25.3,07.0,0000.0,0003.10,0001.04,0000.75
2023-01-26 21:02:00,,0823.0,5.03,0.00,23.5,22.2,00.0,32.3,25.3,06.4,0000.0,0003.03,0001.02,0000.75
2023-01-26 21:03:00,,0822.9,5.00,0.00,23.5,22.2,00.0,32.3,25.3,06.3,0000.0,0003.00,0001.02,0000.77
2023-01-26 21:04:00,,0822.8,5.00,0.00,23.5,22.2,00.0,32.3,25.3,06.0,0000.0,0003.07,0001.06,0000.78
2023-01-26 21:05:00,,0822.8,5.00,0.00,23.5,22.2,00.0,32.3,25.3,06.0,0000.0,0002.26,0001.08,0000.79
2023-01-26 21:06:00,,0822.8,5.01,0.00,23.5,22.2,00.0,32.3,25.3,06.1,0000.0,0002.03,0001.08,0000.81
2023-01-26 21:07:00,,0822.8,5.01,0.00,23.5,22.2,00.0,32.3,25.3,06.0,0000.0,0002.37,0001.09,0000.82
2023-01-26 21:08:00,,0822.8,5.02,0.00,23.5,22.2,00.0,32.4,25.3,05.8,0000.0,0002.35,0001.10,0000.83
2023-01-26 21:09:00,,0822.8,5.00,0.00,23.5,22.2,00.0,32.4,25.3,06.0,0000.0,0002.35,0001.10,0000.83
2023-01-26 21:10:00,,0822.8,5.00,0.00,23.5,22.2,00.0,32.4,25.3,06.0,0000.0,0002.33,0001.10,0000.84
2023-01-26 21:11:00,,0822.8,5.01,0.00,23.5,22.2,00.0,32.4,25.3,05.9,0000.0,0002.34,0001.09,0000.85
2023-01-26 21:12:00,,0822.8,4.99,0.00,23.5,22.2,00.0,32.3,25.2,06.3,0000.0,0002.38,0001.10,0000.85
2023-01-26 21:13:00,,0822.7,5.00,0.00,23.5,22.1,00.0,32.3,25.2,06.0,0000.0,0002.37,0001.09,0000.85
2023-01-26 21:14:00,,0822.6,5.00,0.00,23.5,22.1,00.0,32.4,25.2,05.9,0000.0,0002.33,0001.07,0000.83
2023-01-26 21:15:00,,0822.7,5.02,0.00,23.5,22.0,00.0,32.3,25.2,06.2,0000.0,0002.25,0001.02,0000.82
2023-01-26 21:16:00,,0822.7,5.01,0.00,23.5,22.0,00.0,32.3,25.1,06.2,0000.0,0002.19,0000.99,0000.79
2023-01-26 21:17:00,,0822.7,5.00,0.00,23.5,22.0,00.0,32.3,25.1,06.3,0000.0,0002.14,0000.96,0000.76
2023-01-26 21:18:00,,0822.8,4.98,0.00,23.5,22.0,00.0,32.3,25.1,06.3,0000.0,0001.40,0000.88,0000.73
2023-01-26 21:19:00,,0822.7,5.00,0.00,23.4,22.0,00.0,32.3,25.0,06.8,0000.0,0001.32,0000.85,0000.70
2023-01-26 21:20:00,,0822.7,4.99,0.00,23.4,22.0,00.0,32.3,25.0,06.8,0000.0,0001.33,0000.84,0000.67
2023-01-26 21:21:00,,0822.7,5.00,0.00,23.4,21.9,00.0,32.3,25.1,06.3,0000.0,0001.30,0000.82,0000.65
2023-01-26 21:22:00,,0822.7,5.01,0.00,23.4,21.9,00.0,32.3,25.1,06.2,0000.0,0001.57,0000.80,0000.63
2023-01-26 21:23:00,,0822.6,5.00,0.00,23.4,21.9,00.0,32.3,25.1,06.3,0000.0,0002.85,0000.78,0000.61
2023-01-26 21:24:00,,0822.7,5.01,0.00,23.4,21.9,00.0,32.3,25.1,05.9,0000.0,0002.79,0000.75,0000.59
2023-01-26 21:25:00,,0822.7,4.99,0.00,23.4,21.8,00.0,32.3,25.0,06.2,0000.0,0002.80,0000.74,0000.57
2023-01-26 21:26:00,,0822.7,5.01,0.00,23.3,21.8,00.0,32.3,25.0,06.6,0000.0,0003.04,0000.76,0000.57
2023-01-26 21:27:00,,0822.6,5.00,0.00,23.3,21.6,00.0,32.3,24.9,06.8,0000.0,0003.15,0000.79,0000.56
2023-01-26 21:28:00,,0822.7,5.01,0.00,23.3,21.5,00.0,32.2,24.9,06.0,0000.0,0003.16,0000.80,0000.57
2023-01-26 21:29:00,,0822.8,5.00,0.00,23.2,21.5,00.0,32.2,24.9,06.0,0000.0,0003.27,0000.82,0000.57
2023-01-26 21:30:00,,0822.7,5.01,0.00,23.2,21.4,00.0,32.2,24.9,06.4,0000.0,0003.27,0000.81,0000.57
2023-01-26 21:31:00,,0822.7,5.00,0.00,23.2,21.3,00.0,32.2,24.9,05.9,0000.0,0003.29,0000.81,0000.57
2023-01-26 21:32:00,,0822.7,5.00,0.00,23.1,21.3,00.0,32.2,24.8,06.4,0000.0,0003.31,0000.82,0000.57
2023-01-26 21:33:00,,0822.8,4.99,0.00,23.1,21.3,00.0,32.1,24.8,06.6,0000.0,0003.01,0000.79,0000.56
2023-01-26 21:34:00,,0822.7,5.00,0.00,23.1,21.3,00.0,32.1,24.8,06.5,0000.0,0001.64,0000.79,0000.57
2023-01-26 21:35:00,,0822.7,5.01,0.00,23.1,21.3,00.0,32.1,24.7,06.8,0000.0,0001.72,0000.82,0000.57
2023-01-26 21:36:00,,0822.7,5.00,0.00,23.0,21.2,00.0,32.1,24.7,06.9,0000.0,0001.76,0000.85,0000.57
2023-01-26 21:37:00,,0822.6,5.02,0.00,23.0,21.2,00.0,32.0,24.6,07.1,0000.0,0001.74,0000.88,0000.58
2023-01-26 21:38:00,,0822.8,5.00,0.00,22.9,21.1,00.0,32.0,24.6,06.8,0000.0,0002.14,0000.95,0000.58
2023-01-26 21:39:00,,0822.6,5.00,0.00,22.9,21.1,00.0,32.0,24.6,06.9,0000.0,0002.45,0001.00,0000.57
2023-01-26 21:40:00,,0822.5,5.01,0.00,22.9,21.0,00.0,31.9,24.5,06.9,0000.0,0002.81,0001.02,0000.57
2023-01-26 21:41:00,,0822.6,5.01,0.00,22.9,21.0,00.0,31.9,24.5,07.1,0000.0,0003.07,0001.13,0000.58
2023-01-26 21:42:29,,0822.7,5.08,0.00,22.8,21.0,00.0,31.9,24.4,06.7,0000.0,0003.69,0001.20,0000.59
2023-01-26 21:43:00,,0822.6,5.02,0.00,22.8,21.0,00.0,31.9,24.3,07.0,0000.0,0003.89,0001.19,0000.59
2023-01-26 21:44:00,,0822.7,5.00,0.00,22.7,21.0,00.0,31.8,24.3,07.1,0000.0,0004.37,0001.22,0000.59
2023-01-26 21:45:00,,0822.6,4.99,0.00,22.7,20.9,00.0,31.8,24.3,07.1,0000.0,0004.89,0001.24,0000.60
2023-01-26 21:46:00,,0822.6,5.01,0.00,22.7,20.9,00.0,31.8,24.3,06.6,0000.0,0004.88,0001.24,0000.59
2023-01-26 21:47:00,,0822.6,5.00,0.00,22.6,20.9,00.0,31.7,24.3,06.7,0000.0,0004.85,0001.24,0000.59
2023-01-26 21:48:00,,0822.5,5.00,0.00,22.6,20.9,00.0,31.7,24.3,07.0,0000.0,0004.80,0001.23,0000.59
2023-01-26 21:49:00,,0822.6,5.00,0.00,22.6,20.9,00.0,31.7,24.3,06.9,0000.0,0004.33,0001.14,0000.59
2023-01-26 21:50:00,,0822.5,5.01,0.00,22.6,20.9,00.0,31.6,24.3,07.1,0000.0,0004.24,0001.10,0000.58
2023-01-26 21:51:00,,0822.6,5.00,0.00,22.6,20.8,00.0,31.6,24.3,06.7,0000.0,0003.68,0001.09,0000.57
2023-01-26 21:52:00,,0822.5,4.98,0.00,22.5,20.8,00.0,31.6,24.2,07.0,0000.0,0003.51,0001.03,0000.56
2023-01-26 21:53:00,,0822.6,5.00,0.00,22.5,20.7,00.0,31.6,24.1,06.9,0000.0,0002.94,0000.94,0000.54
2023-01-26 21:54:00,,0822.6,5.01,0.00,22.5,20.7,00.0,31.5,24.1,07.1,0000.0,0002.68,0000.91,0000.54
2023-01-26 21:55:00,,0822.5,4.99,0.00,22.5,20.7,00.0,31.5,24.1,07.4,0000.0,0002.24,0000.87,0000.54
2023-01-26 21:56:00,,0822.3,5.01,0.00,22.4,20.6,00.0,31.5,24.1,07.0,0000.0,0001.44,0000.81,0000.52
2023-01-26 21:57:00,,0822.4,5.01,0.00,22.4,20.4,00.0,31.5,24.0,07.5,0000.0,0001.46,0000.82,0000.52
2023-01-26 21:58:00,,0822.3,5.01,0.00,22.3,20.3,00.0,31.4,24.0,07.4,0000.0,0001.65,0000.86,0000.52
2023-01-26 21:59:00,,0822.4,5.00,0.00,22.3,20.3,00.0,31.4,23.9,07.2,0000.0,0001.81,0000.91,0000.52
